Location: Clairmont
(55.2667°N, 118.8000°W)
Time: 00:11:33
(UTC+00:00)

Envisat - Pass Details

Date: 02 November 2020
Orbit: 764 x 766 km, 98.1° (Epoch: 04 December)

Event Time Altitude Azimuth Distance (km) Brightness Sun altitude
Rises 13:14:16 0° 20° (NNE) 3,248 6.5 -15.7°
Reaches altitude 10° 13:16:49 10° 30° (NNE) 2,316 5.8 -15.4°
Maximum altitude 13:21:24 33° 94° (E) 1,282 4.9 -14.7°
Drops below altitude 10° 13:25:57 10° 158° (SSE) 2,299 5.8 -14.1°
Sets 13:28:28 0° 168° (SSE) 3,221 6.5 -13.7°
